When you browse on this site, cookies collect data to enhance your experience and personalize the content and advertising you see.
Visit our Privacy Policy to learn more. By continuing to use the site, you agree to this use of cookies and data.
  • în România
  • Lista ţărilor
  • Pe 7 zile
  • Temperatura apei
  • Hartă satelitară
  • Meteo pe hartă
  • Widget-uri
  • user-avatar
    Intrare

    Meteo pe oră la Arnieres-sur-Iton

    Astăzi, 22 Aprilie, Luni

    Timp Temperatura Precipitaţii Vânt Presiune Umiditate
    00:00 +13°C° 0 mm 1 m/s 745 mmHg 79%
    01:00 +12°C° 0 mm 1 m/s 745 mmHg 79%
    02:00 +12°C° 0 mm 1 m/s 744 mmHg 79%
    03:00 +12°C° 0 mm 1 m/s 744 mmHg 79%
    04:00 +12°C° 0 mm 1 m/s 743 mmHg 80%
    05:00 +12°C° 0 mm 1 m/s 743 mmHg 82%
    06:00 +13°C° 0 mm 1 m/s 743 mmHg 82%
    07:00 +15°C° 0 mm 2 m/s 742 mmHg 76%
    08:00 +17°C° 0 mm 2 m/s 742 mmHg 70%
    09:00 +19°C° 0 mm 2 m/s 741 mmHg 64%
    10:00 +20°C° 0 mm 2 m/s 741 mmHg 58%
    11:00 +22°C° 0 mm 1 m/s 741 mmHg 51%
    12:00 +22°C° 0 mm 0 m/s 741 mmHg 45%
    13:00 +24°C° 0 mm 1 m/s 740 mmHg 46%
    14:00 +24°C° 0 mm 2 m/s 739 mmHg 46%
    15:00 +24°C° 0 mm 2 m/s 739 mmHg 47%
    16:00 +23°C° 0 mm 2 m/s 738 mmHg 53%
    17:00 +21°C° 0 mm 2 m/s 738 mmHg 59%
    18:00 +19°C° 0 mm 2 m/s 737 mmHg 66%
    19:00 +18°C° 0 mm 2 m/s 737 mmHg 67%
    20:00 +17°C° 0 mm 2 m/s 737 mmHg 69%
    21:00 +15°C° 0 mm 2 m/s 737 mmHg 70%
    22:00 +15°C° 0 mm 2 m/s 736 mmHg 72%
    23:00 +14°C° 0 mm 2 m/s 736 mmHg 73%

    Mâine, 23 Aprilie, Marţi

    Timp Temperatura Precipitaţii Vânt Presiune Umiditate
    00:00 +14°C° 0 mm 2 m/s 736 mmHg 74%
    01:00 +13°C° 0 mm 1 m/s 736 mmHg 77%
    02:00 +13°C° 0 mm 1 m/s 735 mmHg 81%
    03:00 +12°C° 0 mm 1 m/s 735 mmHg 84%
    04:00 +13°C° 0 mm 1 m/s 735 mmHg 84%
    05:00 +12°C° 0 mm 0 m/s 735 mmHg 84%
    06:00 +12°C° 0 mm 0 m/s 735 mmHg 84%
    07:00 +14°C° 0 mm 0 m/s 735 mmHg 78%
    08:00 +18°C° 0 mm 1 m/s 735 mmHg 72%
    09:00 +20°C° 0 mm 1 m/s 735 mmHg 66%
    10:00 +21°C° 0 mm 1 m/s 735 mmHg 64%
    11:00 +22°C° 0 mm 1 m/s 735 mmHg 61%
    12:00 +23°C° 0 mm 1 m/s 735 mmHg 58%
    13:00 +23°C° 0 mm 1 m/s 734 mmHg 59%
    14:00 +23°C° 0 mm 1 m/s 734 mmHg 59%
    15:00 +23°C° 0 mm 1 m/s 733 mmHg 59%
    16:00 +21°C° 0 mm 2 m/s 733 mmHg 65%
    17:00 +19°C° 0 mm 2 m/s 733 mmHg 72%
    18:00 +18°C° 0 mm 2 m/s 732 mmHg 78%
    19:00 +17°C° 0.6 mm 2 m/s 732 mmHg 81%
    20:00 +16°C° 0.6 mm 3 m/s 732 mmHg 84%
    21:00 +14°C° 0.6 mm 3 m/s 732 mmHg 88%
    22:00 +13°C° 0.2 mm 3 m/s 732 mmHg 89%
    23:00 +13°C° 0.2 mm 3 m/s 732 mmHg 91%

    Poimâine, 24 Aprilie, Miercuri

    Timp Temperatura Precipitaţii Vânt Presiune Umiditate
    00:00 +12°C° 0.2 mm 3 m/s 733 mmHg 92%
    01:00 +12°C° 0 mm 3 m/s 733 mmHg 93%
    02:00 +11°C° 0 mm 3 m/s 733 mmHg 95%
    03:00 +11°C° 0 mm 4 m/s 733 mmHg 96%
    04:00 +11°C° 0 mm 4 m/s 733 mmHg 94%
    05:00 +10°C° 0 mm 5 m/s 734 mmHg 93%
    06:00 +10°C° 0 mm 5 m/s 734 mmHg 91%
    07:00 +10°C° 0 mm 5 m/s 735 mmHg 87%
    08:00 +12°C° 0 mm 5 m/s 736 mmHg 82%
    09:00 +12°C° 0 mm 5 m/s 736 mmHg 78%
    10:00 +12°C° 0.3 mm 5 m/s 736 mmHg 78%
    11:00 +13°C° 0.3 mm 6 m/s 736 mmHg 77%
    12:00 +13°C° 0.3 mm 6 m/s 736 mmHg 76%
    13:00 +13°C° 0.5 mm 6 m/s 736 mmHg 76%
    14:00 +13°C° 0.5 mm 6 m/s 736 mmHg 75%
    15:00 +13°C° 0.5 mm 6 m/s 736 mmHg 74%
    16:00 +13°C° 0.2 mm 5 m/s 736 mmHg 77%
    17:00 +12°C° 0.2 mm 5 m/s 736 mmHg 80%
    18:00 +10°C° 0.2 mm 5 m/s 736 mmHg 83%
    19:00 +10°C° 0 mm 5 m/s 736 mmHg 84%
    20:00 +9°C° 0 mm 5 m/s 736 mmHg 85%
    21:00 +8°C° 0 mm 5 m/s 736 mmHg 86%
    22:00 +8°C° 0 mm 6 m/s 736 mmHg 84%
    23:00 +9°C° 0 mm 6 m/s 736 mmHg 82%

    25 Aprilie, Joi

    Timp Temperatura Precipitaţii Vânt Presiune Umiditate
    00:00 +9°C° 0 mm 7 m/s 736 mmHg 80%
    01:00 +9°C° 0.5 mm 7 m/s 735 mmHg 83%
    02:00 +9°C° 0.5 mm 8 m/s 735 mmHg 86%
    03:00 +9°C° 0.5 mm 8 m/s 735 mmHg 89%
    04:00 +7°C° 1 mm 8 m/s 735 mmHg 90%
    05:00 +7°C° 1 mm 8 m/s 735 mmHg 91%
    06:00 +7°C° 1 mm 8 m/s 735 mmHg 92%
    07:00 +9°C° 0 mm 8 m/s 736 mmHg 86%
    08:00 +8°C° 0 mm 9 m/s 737 mmHg 80%
    09:00 +9°C° 0 mm 10 m/s 738 mmHg 75%
    10:00 +11°C° 0.1 mm 10 m/s 739 mmHg 71%
    11:00 +11°C° 0.1 mm 9 m/s 739 mmHg 68%
    12:00 +12°C° 0.1 mm 9 m/s 740 mmHg 64%
    13:00 +11°C° 0.1 mm 9 m/s 740 mmHg 66%
    14:00 +11°C° 0.1 mm 8 m/s 740 mmHg 69%
    15:00 +11°C° 0.1 mm 8 m/s 741 mmHg 71%
    16:00 +10°C° 0 mm 7 m/s 741 mmHg 73%
    17:00 +10°C° 0 mm 6 m/s 742 mmHg 75%
    18:00 +9°C° 0 mm 6 m/s 742 mmHg 77%
    19:00 +8°C° 0 mm 6 m/s 742 mmHg 79%
    20:00 +7°C° 0 mm 5 m/s 743 mmHg 81%
    21:00 +7°C° 0 mm 5 m/s 743 mmHg 82%
    22:00 +7°C° 0 mm 6 m/s 744 mmHg 83%
    23:00 +5°C° 0 mm 6 m/s 744 mmHg 84%

    26 Aprilie, Vineri

    Timp Temperatura Precipitaţii Vânt Presiune Umiditate
    00:00 +5°C° 0 mm 6 m/s 744 mmHg 84%
    01:00 +5°C° 0 mm 6 m/s 744 mmHg 86%
    02:00 +5°C° 0 mm 6 m/s 744 mmHg 88%
    03:00 +4°C° 0 mm 6 m/s 744 mmHg 90%
    04:00 +5°C° 0 mm 6 m/s 744 mmHg 89%
    05:00 +5°C° 0 mm 6 m/s 744 mmHg 88%
    06:00 +5°C° 0 mm 7 m/s 744 mmHg 87%
    07:00 +8°C° 0 mm 7 m/s 745 mmHg 84%
    08:00 +9°C° 0 mm 7 m/s 745 mmHg 81%
    09:00 +10°C° 0 mm 8 m/s 745 mmHg 78%
    10:00 +10°C° 0.2 mm 8 m/s 745 mmHg 78%
    11:00 +11°C° 0.2 mm 8 m/s 746 mmHg 79%
    12:00 +11°C° 0.2 mm 8 m/s 746 mmHg 79%
    13:00 +12°C° 0.6 mm 8 m/s 746 mmHg 79%
    14:00 +12°C° 0.6 mm 7 m/s 746 mmHg 80%
    15:00 +12°C° 0.6 mm 7 m/s 746 mmHg 80%
    16:00 +11°C° 0.3 mm 7 m/s 747 mmHg 83%
    17:00 +10°C° 0.3 mm 7 m/s 748 mmHg 85%
    18:00 +9°C° 0.3 mm 7 m/s 749 mmHg 87%
    19:00 +8°C° 0 mm 6 m/s 750 mmHg 87%
    20:00 +5°C° 0 mm 6 m/s 751 mmHg 87%
    21:00 +5°C° 0 mm 5 m/s 752 mmHg 87%
    22:00 +3°C° 0 mm 5 m/s 752 mmHg 88%
    23:00 +4°C° 0 mm 4 m/s 753 mmHg 89%

    27 Aprilie, Sâmbătă

    Timp Temperatura Precipitaţii Vânt Presiune Umiditate
    00:00 +3°C° 0 mm 4 m/s 753 mmHg 90%
    01:00 +4°C° 0 mm 4 m/s 753 mmHg 90%
    02:00 +3°C° 0 mm 5 m/s 753 mmHg 89%
    03:00 +3°C° 0 mm 5 m/s 753 mmHg 89%
    04:00 +3°C° 0.1 mm 6 m/s 752 mmHg 89%
    05:00 +4°C° 0.1 mm 7 m/s 752 mmHg 90%
    06:00 +5°C° 0.1 mm 8 m/s 751 mmHg 90%
    07:00 +6°C° 0.2 mm 8 m/s 751 mmHg 89%
    08:00 +7°C° 0.2 mm 8 m/s 751 mmHg 88%
    09:00 +9°C° 0.2 mm 8 m/s 752 mmHg 88%
    10:00 +8°C° 0.1 mm 9 m/s 752 mmHg 80%
    11:00 +10°C° 0.1 mm 9 m/s 752 mmHg 73%
    12:00 +9°C° 0.1 mm 10 m/s 752 mmHg 66%
    13:00 +9°C° 0 mm 10 m/s 752 mmHg 64%
    14:00 +9°C° 0 mm 10 m/s 753 mmHg 62%
    15:00 +9°C° 0 mm 10 m/s 753 mmHg 60%
    16:00 +8°C° 0 mm 9 m/s 754 mmHg 65%
    17:00 +8°C° 0 mm 7 m/s 754 mmHg 69%
    18:00 +8°C° 0 mm 6 m/s 755 mmHg 74%
    19:00 +7°C° 0 mm 5 m/s 756 mmHg 79%
    20:00 +6°C° 0 mm 5 m/s 756 mmHg 84%
    21:00 +4°C° 0 mm 4 m/s 757 mmHg 89%
    22:00 +4°C° 0 mm 4 m/s 757 mmHg 91%
    23:00 +4°C° 0 mm 4 m/s 758 mmHg 92%
    Arată mai mult